Regional Weather Roundup
Issued by NWS

Home | Current Version | Previous Version | Graphics & Text | Print | Product List | Glossary On
Versions: 1 2 3 4 5 6 7 8 9 10 11 12 13 14 15 16 17 18 19 20 21 22 23 24 25 26 27 28 29 30 31 32 33 34 35 36 37 38 39 40 41 42 43 44 45 46 47 48 49 50
000
ASUS45 KCYS 221910
RWRWY

WYOMING REGIONAL WEATHER ROUNDUP
NATIONAL WEATHER SERVICE CHEYENNE WY
1200 PM MST WED NOV 22 2017

NOTE:  "FAIR" INDICATES FEW OR NO CLOUDS BELOW 12,000 FEET
WITH NO SIGNIFICANT WEATHER AND/OR OBSTRUCTIONS TO VISIBILITY.

WYZ001-222000-
YELLOWSTONE NATIONAL PARK

CITY           SKY/WX    TMP DP  RH WIND       PRES   REMARKS
LK YELLOWSTONE   N/A     40  38  93 VRB6      30.43R
W YELLOWSTONE  NOT AVBL

$$
WYZ002>013-054>058-071-098>099-222000-
NORTHERN WYOMING

CITY           SKY/WX    TMP DP  RH WIND       PRES   REMARKS
JACKSON        CLOUDY    49  40  71 VRB5      30.41R
CODY           FAIR      58  39  49 SW18G35   30.20F
GREYBULL       PTSUNNY   47  33  58 CALM      30.20F
WORLAND        CLOUDY    44  34  67 CALM      30.19F
SHERIDAN       CLOUDY    68  41  37 W12       30.09F
BUFFALO        CLOUDY    65  34  31 NW14G22   30.14S
GILLETTE       FAIR      65  35  33 W14       30.10S
HULETT         FAIR      59  36  41 W9G16     30.09F
NEWCASTLE      FAIR      54  30  40 CALM      30.12F

$$
WYZ014>020-022>026-101>103-222000-
CENTRAL WYOMING

CITY           SKY/WX    TMP DP  RH WIND       PRES   REMARKS
BIG PINEY      CLOUDY    41  39  93 E3        30.43F
PINEDALE       CLOUDY    37  37 100 CALM      30.44F
DUBOIS         FAIR      50  37  62 NW17G29   30.33R
LANDER         FAIR      51  36  56 NW3       30.25F
RIVERTON       FAIR      52  36  54 VRB5      30.26F
CASPER         FAIR      57  37  47 SW22G28   30.23F
DOUGLAS        FAIR      63  38  39 W26G36    30.16F

$$
WYZ021-027>030-104>119-222000-
SOUTHERN WYOMING

CITY           SKY/WX    TMP DP  RH WIND       PRES   REMARKS
EVANSTON       PTSUNNY   52  41  66 SW14      30.49F
KEMMERER       FAIR      45  37  76 SW6       30.47F
FORT BRIDGER   CLOUDY    53  42  64 W20G25    30.50F
ROCK SPRINGS   CLOUDY    50  39  66 SW16      30.43F
DIXON          CLOUDY    51  36  56 S8        30.46F
RAWLINS        LGT RAIN  49  39  68 W26G38    30.38R
SARATOGA       CLOUDY    50  37  62 W20G31    30.38F
LARAMIE        FAIR      52  38  58 W33G41    30.31F
CHEYENNE       FAIR      59  38  45 W24G32    30.25F
TORRINGTON     FAIR      67  39  35 W21G28    30.12F
PINE BLUFFS    FAIR      64  36  34 NW25G32   30.20F

$$



USA.gov is the U.S. government's official web portal to all federal, state and local government web resources and services.